Date String (YYYY-MM-DD hh:mm:ss) UTC,Instrument flags,absolute air pressure of the measurement (hPa),sample flow rate (lpm),inlet stack bypass flow (lpm),air temperature of the measurement (°C),ambient temperature measured by the external sensor (°C),aerosol sample conditioner tube jacket temperature (°C),OPC LED temperature (°C),internal box temperature (°C),relative humidity of the measurement (%),span deviation,mass concentration of particles derived from Lorenz-Mie calculation of OPC scattering (μg/m³),mass concentration of particles derived from Lorenz-Mie calculation of OPC scattering (μg/m³),mass concentration of particles derived from Lorenz-Mie calculation of OPC scattering (μg/m³)
DateTimeUTC,F1_M11,P_M11,Q1_M11,Q2_M11,T1_M11,T2_M11,T3_M11,T4_M11,T5_M11,U1_M11,ZSPAN_M11,X0_M11,X2_M11,X1_M11
2024-03-11 00:00:00,SystemResetWarning,0826.8,4.99,000.00,026.5,025.8,000.0,034.8,028.3,05.2,0000.0,0013.42,0004.24,0002.61
2024-03-11 00:01:00,SystemResetWarning,0826.8,5.00,000.00,026.5,025.8,000.0,034.8,028.3,05.3,0000.0,0013.59,0004.30,0002.69
2024-03-11 00:02:00,SystemResetWarning,0826.8,5.00,000.00,026.5,025.9,000.0,034.9,028.3,05.5,0000.0,0013.94,0004.37,0002.73
2024-03-11 00:03:00,SystemResetWarning,0826.8,5.00,000.00,026.5,025.9,000.0,034.9,028.3,05.5,0000.0,0013.28,0004.36,0002.74
2024-03-11 00:04:00,SystemResetWarning,0826.8,5.00,000.00,026.5,025.9,000.0,034.9,028.3,05.4,0000.0,0012.57,0004.36,0002.78
2024-03-11 00:05:00,SystemResetWarning,0826.8,5.00,000.00,026.5,025.9,000.0,034.9,028.3,05.4,0000.0,0012.96,0004.38,0002.80
2024-03-11 00:06:00,SystemResetWarning,0826.8,5.01,000.00,026.5,025.9,000.0,034.9,028.3,05.3,0000.0,0014.27,0004.38,0002.83
2024-03-11 00:07:00,SystemResetWarning,0826.8,5.00,000.00,026.5,025.9,000.0,034.9,028.3,05.3,0000.0,0014.62,0004.36,0002.84
2024-03-11 00:08:00,SystemResetWarning,0826.8,4.99,000.00,026.5,025.9,000.0,034.9,028.4,05.1,0000.0,0014.91,0004.37,0002.84
2024-03-11 00:09:00,SystemResetWarning,0826.8,5.00,000.00,026.6,025.9,000.0,034.9,028.4,05.1,0000.0,0015.68,0004.36,0002.85
2024-03-11 00:10:00,SystemResetWarning,0826.8,5.01,000.00,026.6,025.9,000.0,035.0,028.4,05.2,0000.0,0016.68,0004.37,0002.82
2024-03-11 00:11:00,SystemResetWarning,0826.8,5.00,000.00,026.6,025.9,000.0,035.0,028.4,05.2,0000.0,0016.76,0004.37,0002.80
2024-03-11 00:12:00,SystemResetWarning,0826.8,5.00,000.00,026.6,025.9,000.0,035.0,028.4,05.1,0000.0,0017.20,0004.38,0002.76
2024-03-11 00:13:00,SystemResetWarning,0826.8,4.99,000.00,026.6,026.0,000.0,035.0,028.4,05.1,0000.0,0017.37,0004.32,0002.72
2024-03-11 00:14:00,SystemResetWarning,0826.8,5.00,000.00,026.6,026.0,000.0,035.0,028.4,05.0,0000.0,0017.93,0004.38,0002.73
2024-03-11 00:15:00,SystemResetWarning,0826.8,5.01,000.00,026.6,026.0,000.0,035.0,028.4,04.9,0000.0,0018.26,0004.42,0002.72
2024-03-11 00:16:00,SystemResetWarning,0826.8,5.00,000.00,026.6,026.0,000.0,035.0,028.4,05.0,0000.0,0018.06,0004.39,0002.71
2024-03-11 00:17:00,SystemResetWarning,0826.8,4.99,000.00,026.6,026.0,000.0,035.0,028.5,05.0,0000.0,0016.75,0004.38,0002.68
2024-03-11 00:18:00,SystemResetWarning,0826.8,5.00,000.00,026.7,026.0,000.0,035.0,028.5,05.1,0000.0,0016.01,0004.34,0002.66
2024-03-11 00:19:00,SystemResetWarning,0826.8,5.00,000.00,026.7,026.0,000.0,035.1,028.5,05.0,0000.0,0015.68,0004.32,0002.64
2024-03-11 00:20:00,SystemResetWarning,0826.8,5.00,000.00,026.7,026.0,000.0,035.1,028.5,04.8,0000.0,0015.34,0004.29,0002.60
2024-03-11 00:21:00,SystemResetWarning,0826.8,5.00,000.00,026.7,026.0,000.0,035.1,028.5,03.6,0000.0,0013.99,0004.30,0002.60
2024-03-11 00:22:00,SystemResetWarning,0826.8,5.01,000.00,026.7,026.0,000.0,035.1,028.5,03.2,0000.0,0014.06,0004.33,0002.64
2024-03-11 00:23:00,SystemResetWarning,0826.8,5.00,000.00,026.7,026.0,000.0,035.1,028.5,03.2,0000.0,0014.39,0004.29,0002.64
2024-03-11 00:24:00,SystemResetWarning,0826.8,5.00,000.00,026.7,026.1,000.0,035.1,028.5,03.1,0000.0,0013.31,0004.25,0002.65
2024-03-11 00:25:00,SystemResetWarning,0826.8,4.99,000.00,026.7,026.1,000.0,035.1,028.5,02.9,0000.0,0013.53,0004.19,0002.64
2024-03-11 00:26:00,SystemResetWarning,0826.8,4.99,000.00,026.7,026.1,000.0,035.1,028.5,02.9,0000.0,0013.30,0004.20,0002.67
2024-03-11 00:27:00,SystemResetWarning,0826.8,5.01,000.00,026.7,026.1,000.0,035.1,028.5,02.9,0000.0,0013.64,0004.22,0002.67
2024-03-11 00:28:00,SystemResetWarning,0826.8,5.02,000.00,026.7,026.1,000.0,035.2,028.6,02.9,0000.0,0014.93,0004.23,0002.68
2024-03-11 00:29:00,SystemResetWarning,0826.8,5.01,000.00,026.8,026.1,000.0,035.2,028.5,02.7,0000.0,0015.99,0004.29,0002.69
2024-03-11 00:30:00,SystemResetWarning,0826.8,5.00,000.00,026.8,026.1,000.0,035.2,028.6,02.7,0000.0,0015.75,0004.29,0002.70
2024-03-11 00:31:00,SystemResetWarning,0826.7,4.99,000.00,026.8,026.1,000.0,035.2,028.5,02.7,0000.0,0015.13,0004.29,0002.71
2024-03-11 00:32:00,SystemResetWarning,0826.8,5.00,000.00,026.8,026.1,000.0,035.2,028.5,02.6,0000.0,0014.87,0004.24,0002.72
2024-03-11 00:33:00,SystemResetWarning,0826.8,4.99,000.00,026.8,026.0,000.0,035.2,028.6,02.6,0000.0,0014.60,0004.23,0002.71
2024-03-11 00:34:00,SystemResetWarning,0826.8,5.00,000.00,026.8,026.0,000.0,035.2,028.5,03.0,0000.0,0014.14,0004.25,0002.70
2024-03-11 00:35:00,SystemResetWarning,0826.8,5.00,000.00,026.8,026.0,000.0,035.2,028.5,03.1,0000.0,0015.00,0004.27,0002.72
2024-03-11 00:36:00,SystemResetWarning,0826.7,5.01,000.00,026.8,025.9,000.0,035.2,028.5,03.3,0000.0,0015.36,0004.29,0002.73
2024-03-11 00:37:00,SystemResetWarning,0826.8,5.01,000.00,026.7,025.9,000.0,035.2,028.5,03.3,0000.0,0014.93,0004.31,0002.74
2024-03-11 00:38:00,SystemResetWarning,0826.8,5.00,000.00,026.7,025.8,000.0,035.2,028.5,03.1,0000.0,0014.64,0004.33,0002.73
2024-03-11 00:39:00,SystemResetWarning,0826.8,5.00,000.00,026.7,025.8,000.0,035.2,028.4,03.1,0000.0,0014.53,0004.45,0002.69
2024-03-11 00:40:00,SystemResetWarning,0826.8,5.01,000.00,026.7,025.7,000.0,035.2,028.4,03.1,0000.0,0014.78,0004.57,0002.65
2024-03-11 00:41:00,SystemResetWarning,0826.8,5.01,000.00,026.7,025.7,000.0,035.2,028.4,03.2,0000.0,0016.09,0004.65,0002.61
2024-03-11 00:42:00,SystemResetWarning,0826.8,4.99,000.00,026.7,025.7,000.0,035.2,028.4,03.3,0000.0,0016.71,0004.78,0002.55
2024-03-11 00:43:00,SystemResetWarning,0826.8,5.00,000.00,026.6,025.6,000.0,035.2,028.3,03.3,0000.0,0016.75,0004.89,0002.47
2024-03-11 00:44:00,SystemResetWarning,0826.8,5.00,000.00,026.6,025.6,000.0,035.2,028.3,03.4,0000.0,0017.16,0005.00,0002.39
2024-03-11 00:45:00,SystemResetWarning,0826.8,5.00,000.00,026.6,025.5,000.0,035.2,028.3,03.5,0000.0,0017.54,0005.13,0002.34
2024-03-11 00:46:00,SystemResetWarning,0826.8,5.00,000.00,026.6,025.5,000.0,035.2,028.3,03.5,0000.0,0017.15,0005.22,0002.27
2024-03-11 00:47:00,SystemResetWarning,0826.8,5.01,000.00,026.6,025.5,000.0,035.2,028.3,03.5,0000.0,0016.76,0005.31,0002.23
2024-03-11 00:48:00,SystemResetWarning,0826.8,5.01,000.00,026.5,025.5,000.0,035.2,028.2,03.7,0000.0,0017.11,0005.34,0002.13
2024-03-11 00:49:00,SystemResetWarning,0826.8,5.00,000.00,026.5,025.5,000.0,035.2,028.2,03.7,0000.0,0017.48,0005.40,0002.06
2024-03-11 00:50:00,SystemResetWarning,0826.8,4.99,000.00,026.5,025.5,000.0,035.1,028.2,03.4,0000.0,0018.12,0005.43,0002.04
2024-03-11 00:51:00,SystemResetWarning,0826.8,4.99,000.00,026.5,025.5,000.0,035.1,028.2,03.4,0000.0,0018.72,0005.42,0002.02
2024-03-11 00:52:00,SystemResetWarning,0826.8,5.00,000.00,026.5,025.5,000.0,035.1,028.2,03.3,0000.0,0018.47,0005.48,0002.00
2024-03-11 00:53:00,SystemResetWarning,0826.8,5.01,000.00,026.5,025.5,000.0,035.1,028.2,03.4,0000.0,0018.09,0005.46,0001.98
2024-03-11 00:54:00,SystemResetWarning,0826.8,5.00,000.00,026.5,025.5,000.0,035.1,028.2,03.3,0000.0,0020.06,0005.52,0001.98
2024-03-11 00:55:00,SystemResetWarning,0826.8,4.99,000.00,026.5,025.5,000.0,035.1,028.2,03.3,0000.0,0020.87,0005.50,0001.97
2024-03-11 00:56:00,SystemResetWarning,0826.8,5.00,000.00,026.5,025.5,000.0,035.1,028.2,03.1,0000.0,0021.54,0005.50,0001.93
2024-03-11 00:57:00,SystemResetWarning,0826.8,5.00,000.00,026.5,025.4,000.0,035.1,028.2,03.1,0000.0,0022.29,0005.52,0001.92
2024-03-11 00:58:00,SystemResetWarning,0826.8,5.00,000.00,026.5,025.4,000.0,035.1,028.2,03.1,0000.0,0022.49,0005.48,0001.90
2024-03-11 00:59:00,SystemResetWarning,0826.8,5.01,000.00,026.4,025.4,000.0,035.1,028.2,03.2,0000.0,0022.67,0005.46,0001.89
